TimeEDT,TemperatureF,Dew PointF,Humidity,Sea Level PressureIn,VisibilityMPH,Wind Direction,Wind SpeedMPH,Gust SpeedMPH,PrecipitationIn,Events,Conditions,WindDirDegrees,DateUTC
12:53 AM,30.9,23.0,72,30.36,10.0,Calm,Calm,-,N/A,,Clear,0,2013-03-10 05:53:00
1:53 AM,30.0,21.9,72,30.35,10.0,Calm,Calm,-,N/A,,Clear,0,2013-03-10 06:53:00
3:53 AM,28.9,21.9,75,30.36,10.0,Calm,Calm,-,N/A,,Clear,0,2013-03-10 07:53:00
4:53 AM,28.0,21.9,78,30.37,10.0,Calm,Calm,-,N/A,,Clear,0,2013-03-10 08:53:00
5:53 AM,28.0,21.9,78,30.38,10.0,Calm,Calm,-,N/A,,Clear,0,2013-03-10 09:53:00
6:53 AM,26.1,21.9,84,30.39,10.0,Calm,Calm,-,N/A,,Clear,0,2013-03-10 10:53:00
8:53 AM,34.0,27.0,75,30.40,10.0,Calm,Calm,-,N/A,,Clear,0,2013-03-10 12:53:00
9:53 AM,39.9,30.0,68,30.41,10.0,Calm,Calm,-,N/A,,Clear,0,2013-03-10 13:53:00
10:53 AM,42.1,30.9,65,30.41,10.0,ESE,4.6,-,N/A,,Clear,110,2013-03-10 14:53:00
11:53 AM,45.0,30.9,58,30.40,10.0,Calm,Calm,-,N/A,,Clear,0,2013-03-10 15:53:00
12:53 PM,46.9,30.9,54,30.38,10.0,Variable,4.6,-,N/A,,Clear,0,2013-03-10 16:53:00
1:53 PM,50.0,30.0,46,30.36,10.0,Variable,6.9,-,N/A,,Clear,0,2013-03-10 17:53:00
2:53 PM,48.9,30.0,48,30.35,10.0,South,6.9,-,N/A,,Clear,190,2013-03-10 18:53:00
3:53 PM,48.0,30.9,52,30.34,10.0,SE,8.1,-,N/A,,Clear,140,2013-03-10 19:53:00
4:53 PM,46.9,33.1,59,30.32,10.0,SE,8.1,-,N/A,,Clear,140,2013-03-10 20:53:00
5:53 PM,44.1,32.0,63,30.32,10.0,South,9.2,-,N/A,,Clear,180,2013-03-10 21:53:00
6:53 PM,41.0,32.0,70,30.35,10.0,South,6.9,-,N/A,,Scattered Clouds,180,2013-03-10 22:53:00
7:53 PM,39.0,32.0,76,30.35,10.0,South,5.8,-,N/A,,Clear,180,2013-03-10 23:53:00
8:53 PM,37.9,32.0,79,30.35,10.0,SSE,3.5,-,N/A,,Clear,160,2013-03-11 00:53:00
9:53 PM,37.9,33.1,83,30.35,10.0,SW,3.5,-,N/A,,Mostly Cloudy,220,2013-03-11 01:53:00
10:53 PM,37.9,33.1,83,30.35,10.0,Calm,Calm,-,N/A,,Overcast,0,2013-03-11 02:53:00
11:53 PM,37.9,33.1,83,30.34,10.0,Calm,Calm,-,N/A,,Overcast,0,2013-03-11 03:53:00
12:53 AM,37.9,34.0,86,30.32,10.0,Calm,Calm,-,N/A,,Overcast,0,2013-03-11 04:53:00